Theta_e
341 342 345 345 345 344 342 341 342 342 343 344 345 345 346 346 347 347 347 348 346 340 343 345 349 345 345 346 347 343 339 338 339
337 338 340 344 344 345 344 342 341 341 342 341 344 344 345 346 347 347 347 347 348 344 339 344 348 347 344 345 347 345 338 337 331
338 338 337 340 342 343 343 343 343 342 341 341 342 343 344 345 345 346 346 347 347 346 341 342 346 346 345 346 346 346 338 337 334
336 338 339 339 339 341 341 342 343 342 342 342 342 342 344 344 345 346 346 347 346 348 342 338 344 343 346 348 347 344 336 332 334
333 336 339 340 340 340 341 341 342 342 342 342 342 342 342 343 344 345 345 346 346 347 347 338 340 340 345 348 347 344 339 329 327
334 334 337 340 340 339 340 340 341 341 341 341 341 342 343 343 343 344 344 345 346 346 348 341 338 340 343 347 347 347 345 344 342
328 330 336 339 341 340 340 340 340 341 341 341 342 342 342 342 343 343 343 344 346 346 346 348 338 339 340 347 347 348 348 348 347
331 330 335 338 341 341 341 340 341 341 341 341 342 342 343 342 342 343 343 344 345 346 346 347 348 338 340 345 348 348 348 348 349
329 330 330 331 339 341 342 341 342 341 341 342 341 341 342 342 343 343 343 344 345 346 346 347 348 348 341 340 346 347 347 348 348
325 327 327 327 331 339 342 342 342 342 342 342 341 342 342 343 343 343 343 344 345 345 346 347 348 347 348 344 339 341 343 347 348
326 326 326 326 327 330 338 342 342 343 342 342 342 342 343 343 343 344 344 345 345 345 346 346 347 348 347 348 346 342 340 344 345
326 327 327 327 328 329 333 341 344 343 342 342 342 342 344 343 343 344 346 347 347 346 347 346 347 348 348 348 347 347 347 342 344
326 326 326 328 329 328 336 336 341 341 340 340 341 342 342 342 343 344 346 346 347 348 348 347 348 348 348 348 348 348 348 347 345
327 327 328 327 328 329 333 339 340 340 338 338 339 338 340 341 343 344 345 348 349 350 352 352 351 350 352 351 349 350 350 349 348
329 328 328 328 329 331 335 336 339 339 339 339 340 341 342 343 344 345 347 348 349 351 350 350 352 354 354 354 353 351 350 353 351
330 331 330 331 334 334 334 336 339 341 342 343 343 345 346 346 348 350 351 350 352 354 356 357 357 358 357 356 355 351 349 352 351
346 348 343 336 331 331 335 335 338 340 343 344 343 341 342 343 345 349 352 355 356 356 357 358 356 357 357 356 357 354 352 352 346
354 352 351 347 347 348 350 351 348 346 342 339 339 340 340 345 348 346 347 349 353 357 358 357 358 358 356 353 350 346 349 343 339
354 353 352 350 351 350 350 348 346 345 346 347 347 349 351 352 352 350 350 351 354 356 354 353 357 352 344 338 336 340 337 331 332
347 345 343 342 344 344 344 344 345 346 348 348 349 352 355 357 356 355 353 353 351 347 341 341 338 336 331 332 333 334 331 331 330
Wind_Speed
40 40 45 49 57 58 57 54 55 53 51 51 50 48 47 44 41 37 33 32 28 29 31 29 24 24 24 22 19 17 17 17 15
35 41 43 50 55 59 61 58 56 55 53 49 52 51 49 48 45 42 36 33 31 30 32 31 27 26 23 20 20 19 19 18 17
36 40 44 50 51 52 58 61 58 56 53 51 50 52 52 51 47 44 39 34 33 31 31 34 32 29 25 23 22 21 22 20 18
36 39 43 45 49 54 54 54 56 57 55 55 53 53 54 52 51 48 44 40 34 33 33 33 37 35 30 26 25 24 24 22 21
34 35 37 41 45 47 49 53 53 54 54 54 55 55 53 53 51 50 47 44 38 35 34 34 36 37 35 31 29 26 24 24 24
22 23 29 35 38 42 48 51 51 50 51 52 52 53 53 53 52 52 50 47 42 39 37 37 38 39 40 37 35 33 29 27 26
29 27 22 29 37 43 47 51 51 49 49 49 49 50 51 51 52 51 50 47 46 43 40 39 41 42 42 40 38 37 33 30 30
21 22 21 21 31 42 45 48 49 49 48 48 47 47 49 52 51 50 49 50 49 46 44 43 42 44 45 45 44 42 38 35 33
24 23 20 20 26 35 43 45 47 49 48 46 45 45 46 48 50 50 50 50 51 48 47 46 45 45 48 49 49 47 43 40 37
30 33 32 29 24 31 37 42 45 47 45 45 47 46 46 47 48 49 48 49 50 52 51 49 49 48 49 51 51 50 46 42 39
43 42 38 37 30 25 33 40 42 43 45 46 48 48 47 49 48 48 46 45 48 49 52 53 51 51 52 51 51 51 50 46 42
39 32 34 33 27 21 31 39 41 42 44 46 48 46 47 46 47 48 48 48 46 48 50 53 55 54 54 54 53 50 47 42 44
34 32 35 23 25 23 27 42 45 42 43 46 47 47 46 47 48 49 49 47 45 46 47 50 52 55 56 55 52 50 44 40 43
24 27 29 24 27 25 22 30 41 43 41 44 43 45 45 44 45 46 46 46 44 43 44 46 49 52 54 56 52 49 43 41 41
20 24 27 25 27 23 22 23 32 34 33 33 38 39 39 36 36 37 41 42 41 39 38 43 46 49 49 51 46 38 38 36 33
14 17 19 21 19 21 19 19 23 26 28 28 29 30 32 31 33 36 37 37 37 39 37 36 37 39 43 46 46 39 36 40 39
17 15 14 11 12 12 10 8 9 15 22 26 21 20 21 24 29 29 29 29 30 30 30 29 29 33 37 40 38 40 40 43 35
26 25 24 21 19 16 13 9 8 5 2 7 11 14 14 14 17 22 24 25 27 23 24 27 29 33 29 27 30 32 29 36 42
27 26 22 21 19 15 14 12 9 6 3 3 3 3 4 5 10 14 16 19 17 15 16 22 30 25 16 13 11 20 26 12 4
24 22 20 19 17 15 14 13 12 11 8 5 3 2 3 3 4 8 15 20 20 25 30 22 20 7 12 11 32 16 11 10 22
Wind_Direction
221 217 218 217 222 226 229 230 230 229 230 231 231 231 231 230 232 232 233 233 233 226 223 229 235 229 237 239 239 239 232 232 237
225 222 219 221 223 223 227 230 228 229 231 234 234 234 234 232 232 233 233 234 235 232 230 229 230 232 234 237 237 237 233 231 236
226 224 220 223 224 221 225 230 234 231 232 233 236 236 237 236 235 235 234 234 235 234 231 228 229 230 231 235 235 237 230 230 234
225 227 229 232 229 226 230 231 231 235 234 234 234 238 239 239 237 237 237 235 235 237 235 230 229 231 231 233 231 232 228 228 231
238 242 242 240 233 227 221 228 230 233 235 236 239 238 239 240 241 239 238 236 235 237 238 234 230 230 230 229 226 224 225 225 228
247 253 242 238 231 219 225 227 228 233 236 240 240 238 239 240 240 239 238 238 235 235 238 236 233 230 231 228 228 226 227 229 232
248 246 256 231 225 225 225 228 230 233 237 241 240 239 239 239 240 240 238 238 236 234 236 237 236 233 231 231 231 230 231 233 236
245 262 258 246 231 225 228 228 231 234 237 237 239 239 239 242 242 241 240 235 236 237 236 238 240 238 236 235 236 236 235 237 241
236 243 247 260 245 233 228 231 234 236 236 237 237 239 243 243 241 241 240 238 234 235 238 238 240 242 240 240 241 241 241 241 245
243 246 252 256 254 244 236 236 237 236 240 239 236 237 239 240 239 240 240 238 237 233 235 239 240 241 242 242 243 244 243 241 244
246 249 251 253 251 248 247 243 240 243 241 241 240 239 237 237 239 240 240 238 238 236 234 236 239 243 244 244 245 245 246 244 245
244 248 250 255 235 257 246 240 239 241 243 243 244 240 239 240 242 242 239 238 239 239 236 236 238 241 244 246 247 247 248 245 243
249 246 247 241 234 251 250 234 235 235 242 243 240 244 247 246 246 245 241 243 243 242 241 242 242 243 245 247 248 249 247 243 239
250 243 237 246 259 247 251 233 229 233 245 241 253 253 247 246 245 245 246 245 245 245 245 245 244 246 247 249 247 247 243 240 234
261 233 230 240 240 233 237 234 227 241 237 245 243 243 240 241 244 247 245 244 245 251 247 251 248 246 245 249 250 246 238 233 231
225 226 219 218 219 226 241 240 230 231 234 238 235 239 246 251 253 252 248 247 247 249 243 238 236 233 239 242 243 237 223 217 208
125 117 121 138 185 196 205 215 230 240 244 248 259 268 268 266 262 258 253 251 249 245 247 243 239 240 236 236 247 244 221 209 193
105 102 97 98 98 99 94 93 105 117 199 255 258 260 262 262 255 253 251 250 246 241 240 240 239 237 225 221 223 229 226 201 161
96 91 88 82 75 68 56 41 37 44 35 7 321 278 267 262 253 249 240 221 210 208 200 197 215 188 146 81 100 150 144 170 333
88 80 72 69 66 59 48 35 29 26 34 33 42 121 154 192 207 210 210 207 186 167 140 134 129 151 322 346 324 212 295 221 189